NORTHEAST SUFFOLK  -  Winter Weather Advisory Winter Weather Advisory        NORTHERN NASSAU  -  Winter Weather Advisory Winter Weather Advisory        NORTHWEST SUFFOLK  -  Winter Weather Advisory Winter Weather Advisory        SOUTHEAST SUFFOLK  -  Winter Weather Advisory Winter Weather Advisory        SOUTHERN NASSAU  -  Winter Weather Advisory Winter Weather Advisory        SOUTHWEST SUFFOLK  -  Winter Weather Advisory Winter Weather Advisory      

Active alerts

Northern Nassau
  Details for Northern Nassau Winter Weather Advisory
Southern Nassau
  Details for Southern Nassau Winter Weather Advisory
Northwest Suffolk
  Details for Northwest Suffolk Winter Weather Advisory
Southwest Suffolk
  Details for Southwest Suffolk Winter Weather Advisory
Northeast Suffolk
  Details for Northeast Suffolk Winter Weather Advisory
Southeast Suffolk
  Details for Southeast Suffolk Winter Weather Advisory


WXM80 ListenWXM80 Stop

You find our weather info also at:

UK Metoffice

WeatherCloud

Weather Underground

Northeastern Weather Network

AWEKAS

Citizen Weather Observer Program (CWOP)

HAMweather, WeatherForYou, PWS Weather


Weather Underground History page Text

Daily Summary for March 5, 2017 Units:  Metric    English   Both
« Previous Day
Next Day »
Daily Weekly Monthly Yearly Custom
  High: Low: Average:
Temperature: 1.7 °C -9.3 °C -3.8 °C
Dew Point: -13.2 °C -19.1 °C -16.6 °C
Humidity: 49 % 24 % 37 %
Wind Speed: 17.5 km/h 1.1 km/h 9.8 km/h
Wind Gust: 37 km/h - -
Wind:- - WSW
Pressure: 1036.8 hPa 1031.7 hPa -
Precipitation: 0 mm    
Historical Graphs
 
 
Tabular Data for March 5, 2017
Time Temperature Dew Point Pressure Wind Wind Speed Wind Gust Humidity Rainfall Rate (Hourly)
00:02 -7.7 °C -17.6 °C 1034.8 hPa NNW 10.3 km/h 25.9 km/h 45 % 0 mm
00:07 -7.8 °C -17.9 °C 1034.8 hPa North 10.1 km/h 29.6 km/h 44 % 0 mm
00:12 -7.8 °C -17.7 °C 1034.8 hPa NNW 15.1 km/h 27.8 km/h 45 % 0 mm
00:17 -7.9 °C -17.8 °C 1034.8 hPa NW 11.9 km/h 18.5 km/h 45 % 0 mm
00:18 -7.8 °C -17.4 °C 1034.8 hPa NW 12.1 km/h 18.5 km/h 46 % 0 mm
00:23 -7.8 °C -17.4 °C 1034.8 hPa NW 17.5 km/h 30.6 km/h 46 % 0 mm
00:28 -7.9 °C -18.1 °C 1034.4 hPa NW 15.9 km/h 37 km/h 44 % 0 mm
00:33 -7.9 °C -17.8 °C 1034.4 hPa NNW 14.5 km/h 25.7 km/h 45 % 0 mm
00:38 -7.9 °C -17.8 °C 1034.8 hPa North 16.1 km/h 29 km/h 45 % 0 mm
00:43 -7.9 °C -17.1 °C 1034.8 hPa NNW 11.3 km/h 22.5 km/h 48 % 0 mm
00:48 -8 °C -17.6 °C 1034.8 hPa NNW 14.5 km/h 29 km/h 46 % 0 mm
00:53 -8.1 °C -17.7 °C 1035.1 hPa NNW 11.3 km/h 22.5 km/h 46 % 0 mm
00:58 -8.1 °C -18 °C 1035.1 hPa NNW 10.9 km/h 22.2 km/h 45 % 0 mm
01:03 -8.2 °C -17.8 °C 1034.8 hPa NNW 13.4 km/h 20.4 km/h 46 % 0 mm
01:08 -8.2 °C -17.8 °C 1034.8 hPa North 11.3 km/h 18.5 km/h 46 % 0 mm
01:13 -8.2 °C -17.5 °C 1035.1 hPa WNW 9 km/h 18.5 km/h 47 % 0 mm
01:18 -8.2 °C -17.3 °C 1035.1 hPa NNE 11.3 km/h 22.5 km/h 48 % 0 mm
01:23 -8.3 °C -18.1 °C 1034.8 hPa NNW 10.8 km/h 25.9 km/h 45 % 0 mm
01:28 -8.3 °C -18.4 °C 1035.1 hPa NW 14.3 km/h 29.6 km/h 44 % 0 mm
01:33 -8.3 °C -18.2 °C 1035.1 hPa NNW 11.7 km/h 22.5 km/h 45 % 0 mm
01:39 -8.4 °C -17.7 °C 1035.1 hPa NNW 15.3 km/h 31.5 km/h 47 % 0 mm
01:44 -8.4 °C -18.5 °C 1035.1 hPa West 10.6 km/h 18.5 km/h 44 % 0 mm
01:49 -8.4 °C -18.3 °C 1035.1 hPa NW 10.5 km/h 18.5 km/h 45 % 0 mm
01:54 -8.4 °C -18.3 °C 1035.1 hPa NNW 13.4 km/h 20.9 km/h 45 % 0 mm
01:59 -8.4 °C -18.6 °C 1034.8 hPa North 5.8 km/h 18.5 km/h 44 % 0 mm
02:04 -8.5 °C -18.1 °C 1035.1 hPa NNW 7.4 km/h 13 km/h 46 % 0 mm
02:09 -8.5 °C -18.3 °C 1034.8 hPa NNW 13.7 km/h 22.2 km/h 45 % 0 mm
02:14 -8.6 °C -18.4 °C 1034.4 hPa WNW 11.7 km/h 25.9 km/h 45 % 0 mm
02:19 -8.6 °C -18.1 °C 1034.4 hPa NNW 10.3 km/h 18.5 km/h 46 % 0 mm
02:24 -8.6 °C -18.1 °C 1034.8 hPa NW 12.7 km/h 20.4 km/h 46 % 0 mm
02:29 -8.6 °C -17.7 °C 1034.8 hPa NNE 7.9 km/h 13 km/h 48 % 0 mm
02:34 -8.6 °C -17.9 °C 1034.8 hPa NNW 8.2 km/h 16.7 km/h 47 % 0 mm
02:39 -8.7 °C -17.7 °C 1034.8 hPa NW 15 km/h 25.9 km/h 48 % 0 mm
02:44 -8.7 °C -17.7 °C 1034.8 hPa WNW 9 km/h 13 km/h 48 % 0 mm
02:49 -8.7 °C -17.9 °C 1034.8 hPa NW 8.5 km/h 20.4 km/h 47 % 0 mm
02:55 -8.7 °C -17.9 °C 1034.8 hPa NNW 14.5 km/h 20.4 km/h 47 % 0 mm
03:00 -8.7 °C -18.3 °C 1035.1 hPa NW 8.9 km/h 13 km/h 46 % 0 mm
03:05 -8.8 °C -18.3 °C 1035.1 hPa NW 11.4 km/h 20.9 km/h 46 % 0 mm
03:10 -8.8 °C -18.1 °C 1035.1 hPa NW 5.1 km/h 11.3 km/h 47 % 0 mm
03:15 -8.8 °C -17.9 °C 1035.1 hPa North 6.1 km/h 11.1 km/h 48 % 0 mm
03:20 -8.8 °C -18.4 °C 1035.1 hPa North 10.1 km/h 22.2 km/h 46 % 0 mm
03:25 -8.9 °C -18.4 °C 1034.8 hPa NW 9.5 km/h 20.9 km/h 46 % 0 mm
03:30 -8.9 °C -18.2 °C 1035.1 hPa NNW 6.9 km/h 14.8 km/h 47 % 0 mm
03:35 -8.9 °C -18.4 °C 1035.1 hPa NNW 8.4 km/h 16.7 km/h 46 % 0 mm
03:40 -8.9 °C -18.2 °C 1035.1 hPa NW 8.2 km/h 18.5 km/h 47 % 0 mm
03:45 -8.9 °C -18.5 °C 1035.1 hPa NNW 10.5 km/h 24.1 km/h 46 % 0 mm
03:50 -8.9 °C -18.7 °C 1035.1 hPa NW 8.2 km/h 16.7 km/h 45 % 0 mm
03:55 -9 °C -18.6 °C 1035.1 hPa West 13.4 km/h 25.9 km/h 46 % 0 mm
04:01 -9 °C -19.1 °C 1035.1 hPa WNW 12.2 km/h 16.7 km/h 44 % 0 mm
04:06 -9 °C -18.8 °C 1035.1 hPa NW 10.1 km/h 18.5 km/h 45 % 0 mm
04:11 -9.1 °C -18.8 °C 1035.1 hPa NNW 11.1 km/h 19.3 km/h 45 % 0 mm
04:16 -9.1 °C -18.6 °C 1035.4 hPa NW 10.8 km/h 20.4 km/h 46 % 0 mm
04:21 -9.1 °C -18.6 °C 1035.4 hPa NNW 10.8 km/h 22.2 km/h 46 % 0 mm
04:26 -9.1 °C -18.3 °C 1035.4 hPa NNW 11.1 km/h 16.1 km/h 47 % 0 mm
04:31 -9.1 °C -18.3 °C 1035.8 hPa NNW 7.9 km/h 16.7 km/h 47 % 0 mm
04:36 -9.1 °C -18.6 °C 1035.4 hPa NNW 11.4 km/h 18.5 km/h 46 % 0 mm
04:41 -9.1 °C -17.8 °C 1035.4 hPa NW 12.4 km/h 24.1 km/h 49 % 0 mm
04:46 -9.1 °C -18.3 °C 1035.4 hPa NW 9.7 km/h 16.7 km/h 47 % 0 mm
04:51 -9 °C -18.3 °C 1035.8 hPa NNW 6.6 km/h 16.7 km/h 47 % 0 mm
04:56 -9 °C -18.3 °C 1035.8 hPa North 7.6 km/h 13 km/h 47 % 0 mm
05:01 -9 °C -18.3 °C 1035.8 hPa NNW 7.2 km/h 13 km/h 47 % 0 mm
05:06 -9.1 °C -18.3 °C 1036.1 hPa NW 9.3 km/h 18.5 km/h 47 % 0 mm
05:12 -9.1 °C -18.3 °C 1035.8 hPa NW 4 km/h 14.8 km/h 47 % 0 mm
05:17 -9.2 °C -18.4 °C 1036.1 hPa NW 8.4 km/h 14.5 km/h 47 % 0 mm
05:22 -9.2 °C -18.4 °C 1036.1 hPa WNW 10.3 km/h 16.1 km/h 47 % 0 mm
05:27 -9.2 °C -18.7 °C 1036.1 hPa WNW 8.7 km/h 18.5 km/h 46 % 0 mm
05:32 -9.2 °C -18.7 °C 1036.1 hPa NNW 11.7 km/h 14.5 km/h 46 % 0 mm
05:37 -9.3 °C -18.8 °C 1036.1 hPa NW 12.4 km/h 18.5 km/h 46 % 0 mm
05:42 -9.3 °C -19.1 °C 1036.1 hPa NW 9 km/h 20.4 km/h 45 % 0 mm
05:47 -9.3 °C -19.1 °C 1036.1 hPa NNW 12.1 km/h 16.7 km/h 45 % 0 mm
05:52 -9.3 °C -18.8 °C 1036.1 hPa West 8.7 km/h 18.5 km/h 46 % 0 mm
05:57 -9.3 °C -19.1 °C 1036.1 hPa North 5.6 km/h 11.1 km/h 45 % 0 mm
06:02 -9.3 °C -18.8 °C 1036.1 hPa NW 9.2 km/h 14.8 km/h 46 % 0 mm
06:08 -9.3 °C -18.8 °C 1036.1 hPa NNW 9.2 km/h 24.1 km/h 46 % 0 mm
06:13 -9.3 °C -18.8 °C 1036.1 hPa WNW 13.8 km/h 22.2 km/h 46 % 0 mm
06:18 -9.3 °C -19.1 °C 1036.5 hPa NNW 12.9 km/h 13 km/h 45 % 0 mm
06:23 -9.3 °C -18.3 °C 1036.5 hPa NW 8 km/h 22.5 km/h 48 % 0 mm
06:28 -9.3 °C -18.8 °C 1036.5 hPa NW 9.7 km/h 19.3 km/h 46 % 0 mm
06:33 -9.3 °C -18.6 °C 1036.5 hPa NW 1.6 km/h 20.9 km/h 47 % 0 mm
06:38 -9.3 °C -18.6 °C 1036.5 hPa NW 11.3 km/h 19.3 km/h 47 % 0 mm
06:43 -9.3 °C -18.3 °C 1036.5 hPa NW 8 km/h 22.5 km/h 48 % 0 mm
06:45 -9.2 °C -18.7 °C 1036.5 hPa WNW 7.1 km/h 27.8 km/h 46 % 0 mm
06:50 -9.2 °C -18.7 °C 1036.8 hPa WNW 16.4 km/h 27.8 km/h 46 % 0 mm
06:56 -9.1 °C -18.3 °C 1036.8 hPa NNW 7.4 km/h 11.3 km/h 47 % 0 mm
07:01 -8.9 °C -18.2 °C 1036.8 hPa NW 10.5 km/h 18.5 km/h 47 % 0 mm
07:06 -8.8 °C -18.4 °C 1036.8 hPa NNW 9.3 km/h 18.5 km/h 46 % 0 mm
07:11 -8.8 °C -18.3 °C 1036.8 hPa NNE 10.3 km/h 16.7 km/h 46 % 0 mm
07:16 -8.7 °C -18.2 °C 1036.8 hPa NW 13.7 km/h 22.2 km/h 46 % 0 mm
07:21 -8.6 °C -18.7 °C 1036.8 hPa WNW 12.6 km/h 16.1 km/h 44 % 0 mm
07:26 -8.5 °C -18.3 °C 1036.5 hPa NW 7.7 km/h 16.7 km/h 45 % 0 mm
07:31 -8.3 °C -17.9 °C 1036.5 hPa WNW 10.1 km/h 20.9 km/h 46 % 0 mm
07:36 -8.3 °C -17.9 °C 1036.8 hPa NW 7.2 km/h 13 km/h 46 % 0 mm
07:41 -8.2 °C -17.8 °C 1036.5 hPa WNW 7.2 km/h 18.5 km/h 46 % 0 mm
07:46 -8.1 °C -18.4 °C 1036.5 hPa WNW 10.3 km/h 27.8 km/h 43 % 0 mm
07:51 -7.9 °C -18.3 °C 1036.5 hPa NW 7.9 km/h 18.5 km/h 43 % 0 mm
07:56 -7.8 °C -17.9 °C 1036.5 hPa NW 8 km/h 19.3 km/h 44 % 0 mm
08:01 -7.7 °C -18.1 °C 1036.5 hPa NNW 12.6 km/h 22.2 km/h 43 % 0 mm
08:07 -7.6 °C -18 °C 1036.8 hPa NW 13.7 km/h 18.5 km/h 43 % 0 mm
08:12 -7.4 °C -17.9 °C 1036.8 hPa NNW 9.8 km/h 16.1 km/h 43 % 0 mm
08:17 -7.3 °C -17.2 °C 1036.8 hPa NNW 13.4 km/h 20.9 km/h 45 % 0 mm
08:22 -7.1 °C -17.8 °C 1036.8 hPa West 6.1 km/h 12.9 km/h 42 % 0 mm
08:27 -6.9 °C -17.7 °C 1036.8 hPa NW 12.1 km/h 20.4 km/h 42 % 0 mm
08:32 -6.7 °C -18.1 °C 1036.8 hPa WSW 13 km/h 22.2 km/h 40 % 0 mm
08:37 -6.7 °C -18.1 °C 1036.5 hPa NNW 12.4 km/h 24.1 km/h 40 % 0 mm
08:42 -6.7 °C -18.3 °C 1036.8 hPa NNW 10.6 km/h 24.1 km/h 39 % 0 mm
08:47 -6.6 °C -17.7 °C 1036.5 hPa NNW 13.2 km/h 22.2 km/h 41 % 0 mm
08:52 -6.4 °C -17.8 °C 1036.8 hPa NNW 12.4 km/h 18.5 km/h 40 % 0 mm
08:57 -6.3 °C -18 °C 1036.8 hPa NNW 6.3 km/h 14.8 km/h 39 % 0 mm
09:02 -6.3 °C -18.6 °C 1036.8 hPa NNE 14 km/h 24.1 km/h 37 % 0 mm
09:07 -6.1 °C -17.8 °C 1036.8 hPa NNW 6.8 km/h 14.8 km/h 39 % 0 mm
09:12 -5.9 °C -18 °C 1036.8 hPa WNW 14.3 km/h 27.8 km/h 38 % 0 mm
09:18 -5.7 °C -17.8 °C 1036.8 hPa NNW 14.3 km/h 20.4 km/h 38 % 0 mm
09:23 -5.5 °C -17.6 °C 1036.5 hPa WNW 10.5 km/h 19.3 km/h 38 % 0 mm
09:28 -5.3 °C -17.4 °C 1036.5 hPa NNE 10.3 km/h 18.5 km/h 38 % 0 mm
09:33 -4.9 °C -16.7 °C 1036.5 hPa WNW 11.7 km/h 12.9 km/h 39 % 0 mm
09:38 -4.6 °C -17.1 °C 1036.5 hPa NW 8.7 km/h 11.1 km/h 37 % 0 mm
09:43 -4.4 °C -17.3 °C 1036.5 hPa NW 8 km/h 25.7 km/h 36 % 0 mm
09:48 -4.4 °C -17.6 °C 1036.5 hPa NW 9.7 km/h 22.5 km/h 35 % 0 mm
09:53 -4.3 °C -17.5 °C 1036.5 hPa NW 12.9 km/h 24.1 km/h 35 % 0 mm
09:58 -4.2 °C -17.4 °C 1036.1 hPa NW 9.2 km/h 20.4 km/h 35 % 0 mm
10:03 -4 °C -16.9 °C 1036.1 hPa NW 7.2 km/h 13 km/h 36 % 0 mm
10:08 -3.8 °C -17.4 °C 1036.1 hPa NW 8.9 km/h 14.8 km/h 34 % 0 mm
10:13 -3.7 °C -17.7 °C 1035.8 hPa NNW 10.6 km/h 18.5 km/h 33 % 0 mm
10:18 -3.6 °C -17.6 °C 1036.1 hPa NW 10.9 km/h 20.4 km/h 33 % 0 mm
10:23 -3.4 °C -17.1 °C 1035.8 hPa NNW 10.6 km/h 20.4 km/h 34 % 0 mm
10:28 -3.2 °C -17.2 °C 1035.8 hPa WNW 10.8 km/h 18.5 km/h 33 % 0 mm
10:33 -2.9 °C -16.7 °C 1035.8 hPa North 10.3 km/h 18.5 km/h 34 % 0 mm
10:38 -2.6 °C -15.9 °C 1035.8 hPa NNW 7.1 km/h 18.5 km/h 35 % 0 mm
10:44 -2.2 °C -16.3 °C 1035.4 hPa NW 12.6 km/h 25.9 km/h 33 % 0 mm
10:49 -2.1 °C -16.9 °C 1035.4 hPa NNW 10.9 km/h 25.9 km/h 31 % 0 mm
10:54 -1.9 °C -16.8 °C 1035.4 hPa NNW 12.2 km/h 24.1 km/h 31 % 0 mm
10:59 -1.7 °C -16.3 °C 1035.4 hPa NW 10.8 km/h 20.4 km/h 32 % 0 mm
11:04 -1.6 °C -16.2 °C 1035.4 hPa NW 11.6 km/h 20.4 km/h 32 % 0 mm
11:09 -1.4 °C -15.7 °C 1035.4 hPa NW 10.1 km/h 20.9 km/h 33 % 0 mm
11:14 -1.1 °C -16.1 °C 1035.4 hPa NNW 10.9 km/h 18.5 km/h 31 % 0 mm
11:19 -0.9 °C -15.2 °C 1035.1 hPa NNW 12.4 km/h 19.3 km/h 33 % 0 mm
11:25 -0.8 °C -15.9 °C 1035.1 hPa North 11.4 km/h 18.5 km/h 31 % 0 mm
11:30 -0.7 °C -15.7 °C 1035.1 hPa NNW 8.2 km/h 18.5 km/h 31 % 0 mm
11:35 -0.6 °C -16.1 °C 1035.1 hPa North 13 km/h 20.4 km/h 30 % 0 mm
11:40 -0.3 °C -16.2 °C 1035.1 hPa North 11.4 km/h 20.4 km/h 29 % 0 mm
11:45 -0.2 °C -16.2 °C 1035.1 hPa NW 14.3 km/h 20.4 km/h 29 % 0 mm
11:50 -0.3 °C -16.2 °C 1035.1 hPa NNW 7.9 km/h 16.7 km/h 29 % 0 mm
11:55 -0.2 °C -16.2 °C 1034.8 hPa NNW 10.5 km/h 18.5 km/h 29 % 0 mm
12:00 -0.2 °C -16.5 °C 1034.8 hPa NNW 11.1 km/h 22.2 km/h 28 % 0 mm
12:05 0.1 °C -15.5 °C 1034.8 hPa WNW 12.9 km/h 27.8 km/h 30 % 0 mm
12:10 0.1 °C -15.5 °C 1034.4 hPa NW 11.3 km/h 16.7 km/h 30 % 0 mm
12:15 0.1 °C -16.3 °C 1034.4 hPa NW 9.7 km/h 18.5 km/h 28 % 0 mm
12:20 0.2 °C -16.7 °C 1034.4 hPa West 11.4 km/h 24.1 km/h 27 % 0 mm
12:26 0.3 °C -14.8 °C 1034.1 hPa NW 17.1 km/h 24.1 km/h 31 % 0 mm
12:31 0.4 °C -16.4 °C 1034.1 hPa NNW 11.9 km/h 24.1 km/h 27 % 0 mm
12:36 0.4 °C -16.1 °C 1033.7 hPa NNW 11.4 km/h 18.5 km/h 28 % 0 mm
12:41 0.4 °C -16 °C 1033.7 hPa WNW 12.7 km/h 20.4 km/h 28 % 0 mm
12:46 0.6 °C -15.5 °C 1033.7 hPa North 11.6 km/h 27.8 km/h 29 % 0 mm
12:51 0.9 °C -15.1 °C 1033.4 hPa NW 13.8 km/h 20.9 km/h 29 % 0 mm
12:56 0.9 °C -15.1 °C 1033.4 hPa NNW 10.6 km/h 18.5 km/h 29 % 0 mm
13:01 0.9 °C -15.2 °C 1033.4 hPa NW 14.6 km/h 22.2 km/h 29 % 0 mm
13:06 1.1 °C -15.4 °C 1033.4 hPa NW 11.9 km/h 22.2 km/h 28 % 0 mm
13:11 1.1 °C -15.8 °C 1033.1 hPa NNW 7.6 km/h 25.9 km/h 27 % 0 mm
13:16 1.2 °C -15.3 °C 1033.1 hPa North 10 km/h 20.4 km/h 28 % 0 mm
13:21 1.4 °C -15.2 °C 1033.1 hPa NNE 10.1 km/h 17.7 km/h 28 % 0 mm
13:27 1.5 °C -16 °C 1033.1 hPa NNW 7.2 km/h 18.5 km/h 26 % 0 mm
13:32 1.6 °C -15 °C 1032.7 hPa North 9.7 km/h 18.5 km/h 28 % 0 mm
13:37 1.7 °C -15.8 °C 1032.7 hPa WNW 10.9 km/h 18.5 km/h 26 % 0 mm
13:42 1.7 °C -15.8 °C 1032.7 hPa North 12.2 km/h 14.5 km/h 26 % 0 mm
13:47 1.7 °C -16.3 °C 1032.7 hPa WNW 9 km/h 16.1 km/h 25 % 0 mm
13:52 1.7 °C -16.3 °C 1032.7 hPa NNW 8.9 km/h 18.5 km/h 25 % 0 mm
13:57 1.7 °C -16.3 °C 1032.4 hPa NNW 10.6 km/h 18.5 km/h 25 % 0 mm
14:02 1.7 °C -15.8 °C 1032.4 hPa NNW 10 km/h 18.5 km/h 26 % 0 mm
14:07 1.7 °C -15.8 °C 1032.4 hPa North 12.2 km/h 18.5 km/h 26 % 0 mm
14:12 1.7 °C -15.4 °C 1032.4 hPa NNW 6.6 km/h 9.3 km/h 27 % 0 mm
14:17 1.7 °C -16.3 °C 1032.4 hPa NNW 10.1 km/h 19.3 km/h 25 % 0 mm
14:22 1.7 °C -16.3 °C 1032.4 hPa NW 9.3 km/h 16.7 km/h 25 % 0 mm
14:28 1.7 °C -16.3 °C 1032.4 hPa North 12.1 km/h 24.1 km/h 25 % 0 mm
14:33 1.7 °C -15.8 °C 1032.4 hPa NNW 8.7 km/h 27.8 km/h 26 % 0 mm
14:38 1.7 °C -15.8 °C 1032.1 hPa NW 10.5 km/h 16.7 km/h 26 % 0 mm
14:43 1.7 °C -16.3 °C 1032.1 hPa North 8.4 km/h 18.5 km/h 25 % 0 mm
14:48 1.6 °C -16.3 °C 1032.1 hPa NW 14 km/h 24.1 km/h 25 % 0 mm
14:53 1.4 °C -17 °C 1032.1 hPa NNW 11.3 km/h 19.3 km/h 24 % 0 mm
14:58 1.3 °C -16.6 °C 1032.1 hPa NW 5.5 km/h 16.7 km/h 25 % 0 mm
15:03 1.3 °C -15.7 °C 1032.1 hPa WNW 8.4 km/h 18.5 km/h 27 % 0 mm
15:08 1.2 °C -16.7 °C 1032.1 hPa NNE 9.5 km/h 18.5 km/h 25 % 0 mm
15:13 1.2 °C -15.8 °C 1032.1 hPa North 9.5 km/h 16.7 km/h 27 % 0 mm
15:18 1.1 °C -16.3 °C 1032.1 hPa North 11.4 km/h 18.5 km/h 26 % 0 mm
15:23 0.9 °C -16.4 °C 1032.1 hPa WNW 10.9 km/h 20.4 km/h 26 % 0 mm
15:28 0.9 °C -15.2 °C 1032.1 hPa NNW 5.8 km/h 11.1 km/h 29 % 0 mm
15:33 0.8 °C -15.7 °C 1032.1 hPa NW 5.6 km/h 13 km/h 28 % 0 mm
15:38 0.8 °C -15.7 °C 1032.1 hPa North 10.8 km/h 18.5 km/h 28 % 0 mm
15:44 0.7 °C -15.8 °C 1032.1 hPa NNW 14.2 km/h 22.2 km/h 28 % 0 mm
15:49 0.7 °C -15.8 °C 1032.1 hPa NNE 10.5 km/h 18.5 km/h 28 % 0 mm
15:54 0.5 °C -16.4 °C 1032.1 hPa NNE 9.7 km/h 14.8 km/h 27 % 0 mm
15:59 0.4 °C -16 °C 1031.7 hPa NE 11.9 km/h 16.1 km/h 28 % 0 mm
16:04 0.4 °C -15.2 °C 1031.7 hPa NNE 7.6 km/h 9.3 km/h 30 % 0 mm
16:09 0.4 °C -16 °C 1031.7 hPa North 11.3 km/h 18.5 km/h 28 % 0 mm
16:14 0.4 °C -17.4 °C 1031.7 hPa NNE 14 km/h 20.9 km/h 25 % 0 mm
16:19 0.4 °C -15.2 °C 1031.7 hPa North 12.2 km/h 18.5 km/h 30 % 0 mm
16:24 0.3 °C -15.7 °C 1031.7 hPa NW 12.4 km/h 24.1 km/h 29 % 0 mm
16:29 0.3 °C -16.1 °C 1031.7 hPa NNE 8.2 km/h 18.5 km/h 28 % 0 mm
16:34 0.3 °C -16.1 °C 1031.7 hPa NNW 11.4 km/h 16.7 km/h 28 % 0 mm
16:39 0.3 °C -16.1 °C 1031.7 hPa NNW 10.9 km/h 24.1 km/h 28 % 0 mm
16:44 0.3 °C -15.7 °C 1031.7 hPa North 5.6 km/h 13 km/h 29 % 0 mm
16:49 0.3 °C -15.3 °C 1031.7 hPa NNW 9.7 km/h 14.8 km/h 30 % 0 mm
16:54 0.2 °C -15.8 °C 1031.7 hPa North 13 km/h 19.3 km/h 29 % 0 mm
16:59 0.2 °C -16.7 °C 1031.7 hPa NNW 6.6 km/h 14.8 km/h 27 % 0 mm
17:05 0.1 °C -15.4 °C 1031.7 hPa NNW 10.5 km/h 14.5 km/h 30 % 0 mm
17:10 0.1 °C -15.9 °C 1031.7 hPa NNE 9.2 km/h 14.8 km/h 29 % 0 mm
17:15 0 °C -16.4 °C 1031.7 hPa North 10 km/h 16.7 km/h 28 % 0 mm
17:20 -0.1 °C -16.1 °C 1031.7 hPa NNW 6.9 km/h 11.3 km/h 29 % 0 mm
17:25 -0.2 °C -16.5 °C 1031.7 hPa NNE 8.9 km/h 18.5 km/h 28 % 0 mm
17:30 -0.3 °C -16.2 °C 1031.7 hPa NNE 15 km/h 18.5 km/h 29 % 0 mm
17:35 -0.3 °C -16.2 °C 1031.7 hPa North 9 km/h 20.4 km/h 29 % 0 mm
17:40 -0.4 °C -15.9 °C 1031.7 hPa North 9.8 km/h 20.4 km/h 30 % 0 mm
17:45 -0.4 °C -15.9 °C 1031.7 hPa NNE 9.2 km/h 12.9 km/h 30 % 0 mm
17:50 -0.5 °C -16 °C 1032.1 hPa North 10 km/h 18.5 km/h 30 % 0 mm
17:55 -0.6 °C -16.1 °C 1032.1 hPa North 8.5 km/h 20.4 km/h 30 % 0 mm
18:00 -0.6 °C -16.5 °C 1032.4 hPa NE 10.8 km/h 18.5 km/h 29 % 0 mm
18:05 -0.7 °C -16.1 °C 1032.4 hPa North 7.9 km/h 14.8 km/h 30 % 0 mm
18:10 -0.7 °C -15 °C 1032.4 hPa NNE 8.2 km/h 14.8 km/h 33 % 0 mm
18:16 -0.7 °C -15.8 °C 1032.4 hPa NNW 12.1 km/h 24.1 km/h 31 % 0 mm
18:21 -0.7 °C -16.2 °C 1032.4 hPa NNW 14.3 km/h 24.1 km/h 30 % 0 mm
18:26 -0.8 °C -15.8 °C 1032.7 hPa NE 8.7 km/h 14.5 km/h 31 % 0 mm
18:31 -0.8 °C -16.2 °C 1032.4 hPa North 6.4 km/h 18.5 km/h 30 % 0 mm
18:36 -0.8 °C -16.3 °C 1032.7 hPa NW 9.2 km/h 16.7 km/h 30 % 0 mm
18:41 -0.9 °C -15.9 °C 1032.7 hPa NNE 6.9 km/h 18.5 km/h 31 % 0 mm
18:46 -0.9 °C -16 °C 1032.7 hPa NNE 10.1 km/h 22.2 km/h 31 % 0 mm
18:51 -0.9 °C -16 °C 1032.7 hPa NNE 8 km/h 27.8 km/h 31 % 0 mm
18:56 -1 °C -16.4 °C 1033.1 hPa NNE 7.6 km/h 16.1 km/h 30 % 0 mm
19:01 -1 °C -16.8 °C 1032.7 hPa North 13.4 km/h 24.1 km/h 29 % 0 mm
19:06 -1.1 °C -16.1 °C 1032.7 hPa NNE 14.5 km/h 22.2 km/h 31 % 0 mm
19:11 -1.1 °C -16.9 °C 1032.7 hPa NNW 8.2 km/h 12.9 km/h 29 % 0 mm
19:17 -1.1 °C -16.1 °C 1032.7 hPa North 9 km/h 24.1 km/h 31 % 0 mm
19:22 -1.1 °C -15.7 °C 1033.1 hPa NNE 9.2 km/h 14.8 km/h 32 % 0 mm
19:27 -1.1 °C -15.7 °C 1033.1 hPa NNW 12.1 km/h 18.5 km/h 32 % 0 mm
19:32 -1.2 °C -16.2 °C 1033.1 hPa North 6.6 km/h 18.5 km/h 31 % 0 mm
19:37 -1.2 °C -16.2 °C 1033.1 hPa North 12.9 km/h 20.4 km/h 31 % 0 mm
19:42 -1.2 °C -15.8 °C 1032.7 hPa North 13.2 km/h 24.1 km/h 32 % 0 mm
19:47 -1.2 °C -16.2 °C 1032.7 hPa North 12.9 km/h 16.7 km/h 31 % 0 mm
19:48 -1.2 °C -16.2 °C 1032.7 hPa North 12.4 km/h 18.5 km/h 31 % 0 mm
19:53 -1.2 °C -15.8 °C 1032.7 hPa NNW 16.1 km/h 24.1 km/h 32 % 0 mm
19:58 -1.2 °C -15.8 °C 1032.7 hPa North 12.4 km/h 17.7 km/h 32 % 0 mm
20:03 -1.2 °C -15.5 °C 1032.7 hPa NNE 12.9 km/h 18.5 km/h 33 % 0 mm
20:08 -1.2 °C -15.1 °C 1032.7 hPa NNE 11.3 km/h 19.3 km/h 34 % 0 mm
20:13 -1.2 °C -14.8 °C 1032.7 hPa NNE 12.9 km/h 19.3 km/h 35 % 0 mm
20:18 -1.3 °C -15.5 °C 1032.7 hPa NNE 14.5 km/h 20.9 km/h 33 % 0 mm
20:23 -1.3 °C -14.8 °C 1032.7 hPa NNE 8 km/h 19.3 km/h 35 % 0 mm
20:28 -1.3 °C -14.4 °C 1032.7 hPa NNE 9.7 km/h 14.5 km/h 36 % 0 mm
20:33 -1.3 °C -14.8 °C 1032.7 hPa NNE 8 km/h 16.1 km/h 35 % 0 mm
20:38 -1.4 °C -14.6 °C 1032.7 hPa NNE 10.5 km/h 18.5 km/h 36 % 0 mm
20:43 -1.4 °C -14.2 °C 1032.7 hPa NNE 11.3 km/h 19.3 km/h 37 % 0 mm
20:48 -1.4 °C -13.9 °C 1032.7 hPa NNE 4.8 km/h 12.9 km/h 38 % 0 mm
20:53 -1.4 °C -14.6 °C 1033.1 hPa NNE 9.7 km/h 19.3 km/h 36 % 0 mm
20:58 -1.5 °C -14.3 °C 1032.7 hPa NNE 9.5 km/h 16.7 km/h 37 % 0 mm
21:03 -1.5 °C -14.3 °C 1033.1 hPa NNE 6.8 km/h 14.8 km/h 37 % 0 mm
21:08 -1.6 °C -14.4 °C 1033.1 hPa NNW 6.1 km/h 11.1 km/h 37 % 0 mm
21:13 -1.6 °C -14.4 °C 1033.1 hPa NE 6.3 km/h 9.3 km/h 37 % 0 mm
21:18 -1.6 °C -13.8 °C 1033.1 hPa NNW 7.9 km/h 16.1 km/h 39 % 0 mm
21:23 -1.7 °C -14.2 °C 1033.1 hPa NNE 7.6 km/h 13 km/h 38 % 0 mm
21:29 -1.7 °C -13.8 °C 1033.1 hPa North 1.9 km/h 5.6 km/h 39 % 0 mm
21:34 -1.7 °C -13.9 °C 1033.1 hPa North 7.4 km/h 11.1 km/h 39 % 0 mm
21:39 -1.8 °C -13.9 °C 1033.1 hPa North 6.3 km/h 11.3 km/h 39 % 0 mm
21:44 -1.8 °C -13.9 °C 1033.1 hPa NNE 7.2 km/h 9.3 km/h 39 % 0 mm
21:49 -1.8 °C -13.9 °C 1033.1 hPa North 5.6 km/h 11.3 km/h 39 % 0 mm
21:54 -1.8 °C -14 °C 1033.1 hPa NNW 6.3 km/h 9.3 km/h 39 % 0 mm
21:59 -1.8 °C -14 °C 1033.1 hPa NNW 5.5 km/h 9.3 km/h 39 % 0 mm
22:04 -1.8 °C -14 °C 1033.1 hPa NNE 6.4 km/h 11.1 km/h 39 % 0 mm
22:09 -1.8 °C -13.7 °C 1033.1 hPa NW 3.7 km/h 11.3 km/h 40 % 0 mm
22:14 -1.8 °C -13.7 °C 1033.1 hPa NNE 5.1 km/h 11.1 km/h 40 % 0 mm
22:19 -1.8 °C -13.7 °C 1033.1 hPa NNE 6.4 km/h 6.4 km/h 40 % 0 mm
22:24 -1.8 °C -14 °C 1033.1 hPa NNW 4.8 km/h 9.3 km/h 39 % 0 mm
22:29 -1.8 °C -14.6 °C 1033.1 hPa North 1.9 km/h 7.4 km/h 37 % 0 mm
22:40 -1.8 °C -13.7 °C 1033.1 hPa North 2.9 km/h 9.3 km/h 40 % 0 mm
22:45 -1.8 °C -14 °C 1032.7 hPa North 5 km/h 9.3 km/h 39 % 0 mm
22:50 -1.9 °C -14.1 °C 1032.7 hPa NNW 7.9 km/h 13 km/h 39 % 0 mm
22:55 -1.8 °C -13.7 °C 1032.7 hPa NNW 1.9 km/h 5.6 km/h 40 % 0 mm
23:00 -1.9 °C -13.7 °C 1032.7 hPa NNE 7.1 km/h 12.9 km/h 40 % 0 mm
23:05 -1.9 °C -13.7 °C 1032.7 hPa North 1.1 km/h 9.3 km/h 40 % 0 mm
23:10 -1.9 °C -13.4 °C 1032.7 hPa North 5 km/h 7.4 km/h 41 % 0 mm
23:15 -1.9 °C -13.8 °C 1033.1 hPa North 6.3 km/h 13 km/h 40 % 0 mm
23:20 -1.9 °C -13.2 °C 1033.1 hPa NW 3.9 km/h 7.4 km/h 42 % 0 mm
23:25 -1.9 °C -13.2 °C 1032.7 hPa North 6.4 km/h 11.1 km/h 42 % 0 mm
23:30 -1.9 °C -13.4 °C 1032.7 hPa North 6.4 km/h 14.8 km/h 41 % 0 mm
23:35 -1.9 °C -13.2 °C 1032.7 hPa North 6.8 km/h 9.3 km/h 42 % 0 mm
23:40 -1.9 °C -13.4 °C 1033.1 hPa North 2.7 km/h 7.4 km/h 41 % 0 mm
23:46 -2 °C -13.2 °C 1033.1 hPa NW 1.9 km/h 11.1 km/h 42 % 0 mm
23:51 -2 °C -13.5 °C 1032.7 hPa NNW 4 km/h 7.4 km/h 41 % 0 mm
23:52 -2.1 °C -13.3 °C 1033.1 hPa NNW 1.8 km/h 5.6 km/h 42 % 0 mm
23:57 -2.1 °C -13.3 °C 1033.1 hPa NW 2.6 km/h 5.6 km/h 42 % 0 mm
Crab Meadow Weather
Compliments of Weather Underground - 3 mb

Script developed by  Jim McMurry - jmcmurry@mwt.net Adapted for the template by  Wim van der Kuil - Leuven-Template.eu

Weather Terms: Heat Index - The apparent temperature that describes the combined effect of high temperatures and high levels of humidity, which reduces the body's ability to cool itself.